GEFSGL_prec_meanprecacc_288.txt.gz
Total_Precipitation_Accumulation
1.19 1.23 1.20 1.27 1.36 1.61 1.82 1.77 1.57 1.53 1.54 1.53 1.50 1.57 1.72 1.85 1.96 2.08 2.13 2.13 2.13 2.26 2.20 2.15 2.23 2.35 2.60 2.56 2.61 2.60 2.50 2.43 2.38 2.15 1.79 1.77 2.01 2.12 2.03 1.82 1.66 1.65 1.50
0.99 1.05 1.12 1.13 1.23 1.34 1.46 1.49 1.41 1.29 1.25 1.31 1.36 1.36 1.44 1.65 1.79 1.81 1.84 1.84 1.88 1.97 2.04 1.99 2.02 2.11 2.24 2.44 2.54 2.53 2.54 2.48 2.47 2.41 2.06 1.87 1.83 1.96 2.04 2.00 1.75 1.61 1.53
0.92 1.00 1.10 1.08 1.08 1.09 1.13 1.09 1.11 1.09 1.13 1.16 1.27 1.32 1.39 1.48 1.65 1.66 1.68 1.64 1.64 1.68 1.80 1.87 1.93 1.98 2.02 2.15 2.11 2.19 2.32 2.49 2.57 2.48 2.31 2.10 1.93 1.91 1.99 1.95 1.88 1.91 1.67
1.01 1.09 1.16 1.16 1.16 1.15 1.12 1.09 1.10 1.10 1.13 1.22 1.38 1.44 1.45 1.47 1.48 1.52 1.60 1.60 1.48 1.41 1.47 1.51 1.64 1.76 1.80 1.99 1.95 1.95 2.11 2.36 2.63 2.63 2.49 2.26 2.12 2.06 2.02 1.97 2.02 2.01 1.91
0.89 1.02 1.09 1.16 1.23 1.16 1.05 1.00 1.05 1.03 1.01 1.15 1.29 1.43 1.46 1.45 1.42 1.49 1.58 1.61 1.55 1.37 1.30 1.31 1.37 1.51 1.77 1.87 1.82 2.02 2.18 2.23 2.38 2.52 2.50 2.42 2.27 2.11 1.97 1.87 1.94 2.00 2.02
0.81 0.92 1.11 1.19 1.13 1.07 0.97 0.95 0.96 0.93 0.91 1.00 1.13 1.30 1.40 1.37 1.77 1.77 1.57 1.54 1.52 1.38 1.25 1.23 1.20 1.20 1.41 1.70 1.85 1.98 2.12 2.21 2.26 2.30 2.34 2.27 2.21 2.15 2.20 2.15 2.04 1.96 1.92
0.76 0.90 1.11 1.14 1.06 0.99 1.02 1.03 0.96 0.92 0.94 1.01 1.05 1.05 1.14 1.44 1.50 1.25 1.28 1.30 1.42 1.34 1.21 1.12 1.02 0.99 1.14 1.24 1.40 1.53 1.73 2.04 2.25 2.29 2.18 2.04 2.13 2.11 2.17 2.20 2.11 2.02 1.90
0.67 0.79 0.97 1.02 1.00 1.03 1.02 0.99 0.90 0.84 0.84 0.88 0.91 0.94 1.00 1.14 1.15 1.06 1.15 1.08 1.22 1.23 1.13 1.08 1.06 1.04 1.08 1.14 1.29 1.43 1.43 1.51 1.75 1.81 1.82 1.85 1.92 2.09 2.16 2.20 2.26 2.19 2.14
0.53 0.65 0.76 0.79 0.86 0.88 0.85 0.88 0.84 0.76 0.75 0.77 0.80 0.87 0.96 0.95 0.97 0.95 1.02 1.12 1.25 1.21 1.09 1.08 1.06 1.03 1.23 1.32 1.29 1.36 1.45 1.42 1.56 1.73 1.93 1.91 1.82 1.83 1.95 2.02 2.15 2.19 2.17
0.44 0.56 0.65 0.68 0.70 0.73 0.79 0.82 0.83 0.78 0.74 0.74 0.77 0.78 0.83 0.88 1.01 0.88 0.96 1.14 1.25 1.27 1.23 1.13 1.23 1.20 1.32 1.31 1.25 1.39 1.45 1.29 1.22 1.34 1.50 1.55 1.46 1.48 1.67 1.69 1.90 2.06 1.98
0.35 0.45 0.54 0.57 0.64 0.73 0.82 0.84 0.89 0.85 0.80 0.78 0.82 0.83 0.79 0.87 1.02 0.98 1.00 1.04 1.24 1.30 1.32 1.25 1.11 1.19 1.18 1.23 1.29 1.36 1.55 1.41 1.28 1.34 1.46 1.44 1.32 1.31 1.38 1.45 1.58 1.85 1.92
0.25 0.32 0.46 0.54 0.61 0.71 0.83 0.88 0.87 0.88 0.88 0.88 0.87 0.88 0.84 0.84 0.90 0.94 0.97 1.02 1.12 1.16 1.25 1.23 1.16 1.23 1.10 1.08 1.10 1.23 1.52 1.46 1.31 1.33 1.38 1.38 1.31 1.22 1.27 1.30 1.39 1.50 1.63
0.20 0.24 0.32 0.39 0.44 0.54 0.64 0.76 0.82 0.82 0.82 0.83 0.89 0.97 0.98 0.90 0.96 1.07 0.93 0.91 0.97 0.99 1.02 1.14 1.12 1.09 1.02 0.95 1.03 1.15 1.28 1.40 1.41 1.33 1.26 1.23 1.22 1.21 1.26 1.23 1.25 1.34 1.37
0.21 0.24 0.26 0.29 0.31 0.37 0.52 0.60 0.65 0.70 0.75 0.82 0.89 1.00 1.10 1.05 0.98 0.95 0.89 0.88 0.91 0.86 0.81 0.82 0.84 0.87 0.87 0.86 0.92 0.98 1.10 1.28 1.41 1.33 1.20 1.20 1.22 1.24 1.27 1.20 1.20 1.27 1.31
0.21 0.22 0.23 0.25 0.29 0.34 0.41 0.54 0.61 0.67 0.72 0.78 0.85 0.99 1.07 1.08 1.09 1.18 1.14 1.07 1.02 0.99 0.94 0.84 0.78 0.81 0.88 0.94 0.95 0.94 1.01 1.13 1.24 1.23 1.18 1.15 1.18 1.23 1.22 1.16 1.15 1.19 1.23
0.26 0.24 0.25 0.27 0.30 0.33 0.39 0.48 0.54 0.56 0.58 0.61 0.66 0.72 0.81 0.88 0.94 0.95 0.98 0.98 0.95 0.93 1.00 1.00 0.97 1.01 1.02 1.00 1.01 0.95 0.91 0.96 1.08 1.16 1.16 1.11 1.08 1.13 1.19 1.18 1.17 1.18 1.19
0.36 0.33 0.31 0.30 0.34 0.39 0.40 0.42 0.49 0.51 0.53 0.55 0.57 0.63 0.70 0.75 0.76 0.77 0.82 0.88 0.91 0.90 0.98 0.97 0.90 0.85 0.85 0.84 0.86 0.86 0.86 0.85 0.90 1.01 1.06 1.07 1.03 1.06 1.16 1.20 1.20 1.25 1.25
0.27 0.30 0.32 0.35 0.35 0.38 0.43 0.50 0.57 0.63 0.58 0.51 0.51 0.58 0.60 0.62 0.65 0.68 0.74 0.76 0.70 0.68 0.71 0.79 0.76 0.72 0.69 0.70 0.71 0.69 0.72 0.75 0.78 0.84 0.92 0.97 1.02 1.06 1.11 1.17 1.20 1.20 1.22
0.25 0.29 0.37 0.41 0.39 0.39 0.47 0.58 0.63 0.65 0.63 0.55 0.46 0.45 0.48 0.48 0.54 0.60 0.64 0.64 0.61 0.54 0.54 0.61 0.66 0.66 0.63 0.59 0.57 0.57 0.58 0.60 0.63 0.70 0.79 0.84 0.90 0.96 1.01 1.07 1.12 1.18 1.20
0.31 0.36 0.44 0.48 0.45 0.46 0.50 0.51 0.50 0.54 0.54 0.50 0.48 0.49 0.49 0.45 0.44 0.48 0.52 0.53 0.55 0.53 0.53 0.57 0.58 0.59 0.58 0.58 0.55 0.53 0.55 0.58 0.60 0.65 0.73 0.83 0.88 0.89 0.89 0.94 1.03 1.08 1.07
0.39 0.39 0.40 0.47 0.47 0.46 0.47 0.45 0.47 0.50 0.48 0.46 0.47 0.49 0.51 0.46 0.45 0.45 0.46 0.46 0.47 0.51 0.52 0.53 0.54 0.59 0.58 0.57 0.56 0.57 0.56 0.57 0.58 0.63 0.67 0.71 0.75 0.80 0.84 0.87 0.89 0.94 0.99
0.39 0.39 0.38 0.45 0.49 0.44 0.42 0.44 0.49 0.51 0.51 0.48 0.46 0.46 0.48 0.44 0.44 0.45 0.46 0.49 0.49 0.51 0.52 0.51 0.53 0.57 0.60 0.59 0.58 0.59 0.61 0.60 0.60 0.63 0.67 0.68 0.70 0.72 0.76 0.78 0.81 0.85 0.89
0.42 0.41 0.40 0.43 0.44 0.42 0.41 0.44 0.49 0.53 0.51 0.49 0.48 0.47 0.45 0.43 0.42 0.44 0.49 0.56 0.61 0.59 0.55 0.51 0.54 0.59 0.62 0.63 0.61 0.61 0.62 0.60 0.59 0.62 0.66 0.69 0.71 0.75 0.77 0.79 0.80 0.86 0.91
0.44 0.45 0.47 0.49 0.48 0.51 0.54 0.53 0.51 0.51 0.52 0.51 0.48 0.47 0.45 0.42 0.43 0.44 0.49 0.56 0.61 0.60 0.59 0.56 0.55 0.59 0.65 0.67 0.68 0.65 0.61 0.61 0.59 0.60 0.64 0.68 0.71 0.72 0.74 0.78 0.82 0.84 0.91
0.46 0.47 0.49 0.53 0.53 0.54 0.58 0.57 0.53 0.51 0.53 0.56 0.57 0.52 0.49 0.46 0.45 0.45 0.47 0.53 0.56 0.56 0.56 0.57 0.61 0.64 0.66 0.65 0.65 0.67 0.78 0.77 0.70 0.66 0.65 0.70 0.73 0.73 0.77 0.81 0.85 0.89 0.94
0.46 0.48 0.53 0.60 0.61 0.60 0.61 0.62 0.59 0.56 0.57 0.59 0.62 0.65 0.62 0.56 0.52 0.51 0.52 0.54 0.55 0.54 0.55 0.56 0.59 0.62 0.64 0.65 0.64 0.68 0.73 0.70 0.70 0.72 0.69 0.70 0.76 0.82 0.87 0.90 0.93 0.99 1.07

GEFSGL_prec_meanprecacc_294.txt.gz
Total_Precipitation_Accumulation
1.19 1.24 1.21 1.28 1.38 1.62 1.82 1.77 1.57 1.53 1.54 1.53 1.50 1.57 1.73 1.86 1.97 2.08 2.15 2.15 2.16 2.29 2.22 2.17 2.26 2.37 2.63 2.60 2.63 2.62 2.53 2.46 2.42 2.18 1.82 1.80 2.03 2.14 2.04 1.83 1.67 1.67 1.51
1.00 1.05 1.13 1.14 1.24 1.35 1.47 1.50 1.41 1.29 1.26 1.31 1.36 1.36 1.45 1.65 1.80 1.82 1.85 1.85 1.89 1.99 2.06 2.00 2.04 2.14 2.26 2.47 2.57 2.56 2.57 2.52 2.50 2.43 2.09 1.90 1.86 1.98 2.06 2.01 1.76 1.62 1.54
0.93 1.01 1.11 1.09 1.09 1.10 1.13 1.09 1.12 1.10 1.14 1.16 1.27 1.33 1.40 1.49 1.65 1.67 1.70 1.65 1.65 1.69 1.82 1.89 1.95 2.00 2.04 2.16 2.13 2.22 2.36 2.51 2.60 2.50 2.33 2.11 1.95 1.93 2.00 1.97 1.90 1.92 1.68
1.02 1.09 1.17 1.17 1.17 1.16 1.13 1.10 1.11 1.11 1.13 1.22 1.39 1.45 1.46 1.48 1.49 1.53 1.61 1.61 1.49 1.42 1.48 1.53 1.66 1.78 1.82 2.00 1.98 1.99 2.15 2.39 2.65 2.66 2.51 2.27 2.13 2.08 2.04 2.00 2.06 2.03 1.93
0.90 1.03 1.09 1.17 1.23 1.16 1.06 1.01 1.06 1.04 1.02 1.16 1.30 1.44 1.47 1.46 1.42 1.50 1.58 1.62 1.56 1.39 1.31 1.32 1.38 1.53 1.80 1.90 1.85 2.06 2.22 2.28 2.41 2.54 2.52 2.45 2.29 2.13 2.00 1.90 1.98 2.03 2.05
0.81 0.92 1.11 1.20 1.13 1.08 0.98 0.96 0.97 0.94 0.93 1.02 1.15 1.32 1.42 1.38 1.78 1.78 1.58 1.55 1.54 1.39 1.27 1.24 1.21 1.22 1.42 1.72 1.88 2.02 2.16 2.24 2.29 2.33 2.36 2.28 2.21 2.16 2.22 2.18 2.07 2.00 1.97
0.76 0.91 1.12 1.15 1.06 0.99 1.03 1.04 0.97 0.94 0.96 1.02 1.07 1.06 1.15 1.46 1.52 1.27 1.29 1.31 1.43 1.35 1.23 1.14 1.04 1.00 1.16 1.25 1.42 1.55 1.74 2.06 2.27 2.31 2.20 2.05 2.14 2.11 2.17 2.21 2.13 2.05 1.94
0.67 0.79 0.97 1.02 1.01 1.03 1.02 1.00 0.91 0.85 0.85 0.90 0.92 0.96 1.02 1.16 1.17 1.09 1.17 1.09 1.23 1.24 1.15 1.10 1.07 1.05 1.09 1.15 1.30 1.44 1.44 1.52 1.76 1.82 1.83 1.86 1.93 2.10 2.17 2.20 2.27 2.20 2.16
0.54 0.66 0.76 0.79 0.86 0.89 0.86 0.89 0.84 0.76 0.76 0.78 0.82 0.88 0.97 0.96 0.98 0.98 1.03 1.13 1.27 1.23 1.10 1.10 1.08 1.04 1.24 1.33 1.30 1.37 1.45 1.42 1.56 1.74 1.95 1.93 1.84 1.85 1.96 2.02 2.16 2.20 2.18
0.46 0.57 0.66 0.68 0.71 0.74 0.80 0.83 0.84 0.78 0.75 0.75 0.79 0.80 0.85 0.90 1.03 0.90 0.98 1.15 1.27 1.29 1.25 1.14 1.25 1.23 1.34 1.32 1.26 1.40 1.45 1.29 1.22 1.34 1.51 1.56 1.47 1.49 1.69 1.70 1.90 2.06 1.98
0.36 0.47 0.55 0.58 0.65 0.75 0.83 0.85 0.90 0.86 0.81 0.80 0.84 0.85 0.81 0.89 1.05 1.01 1.02 1.06 1.27 1.32 1.34 1.26 1.12 1.21 1.20 1.25 1.30 1.36 1.56 1.42 1.29 1.35 1.47 1.45 1.34 1.32 1.39 1.45 1.58 1.86 1.93
0.26 0.34 0.47 0.56 0.63 0.72 0.83 0.89 0.87 0.88 0.89 0.90 0.89 0.90 0.86 0.86 0.93 0.98 1.00 1.04 1.15 1.18 1.27 1.24 1.18 1.27 1.13 1.10 1.12 1.24 1.53 1.47 1.32 1.35 1.39 1.39 1.32 1.23 1.28 1.30 1.39 1.51 1.64
0.20 0.25 0.34 0.41 0.46 0.55 0.66 0.77 0.82 0.83 0.84 0.85 0.91 0.98 1.00 0.92 0.98 1.10 0.97 0.94 1.00 1.01 1.04 1.16 1.14 1.13 1.05 0.98 1.05 1.16 1.29 1.41 1.42 1.35 1.27 1.24 1.23 1.22 1.27 1.25 1.25 1.35 1.38
0.22 0.25 0.27 0.30 0.33 0.39 0.53 0.61 0.66 0.72 0.77 0.84 0.91 1.01 1.12 1.07 1.00 0.97 0.92 0.92 0.95 0.89 0.84 0.85 0.86 0.90 0.89 0.89 0.94 1.00 1.11 1.29 1.42 1.34 1.21 1.22 1.23 1.25 1.28 1.21 1.21 1.28 1.32
0.22 0.24 0.25 0.27 0.30 0.34 0.42 0.55 0.63 0.69 0.74 0.80 0.87 1.01 1.09 1.10 1.12 1.21 1.18 1.09 1.04 1.02 0.97 0.87 0.80 0.83 0.90 0.96 0.97 0.96 1.02 1.14 1.25 1.24 1.19 1.17 1.21 1.25 1.24 1.18 1.16 1.20 1.24
0.27 0.25 0.26 0.28 0.31 0.34 0.39 0.48 0.55 0.57 0.59 0.63 0.68 0.74 0.83 0.90 0.96 0.97 1.00 1.01 0.98 0.97 1.04 1.03 1.00 1.04 1.05 1.02 1.03 0.98 0.94 0.98 1.10 1.18 1.18 1.13 1.10 1.15 1.21 1.20 1.19 1.20 1.20
0.37 0.34 0.32 0.32 0.36 0.40 0.41 0.43 0.50 0.53 0.55 0.57 0.59 0.65 0.71 0.77 0.77 0.80 0.85 0.91 0.95 0.93 1.01 0.99 0.92 0.87 0.88 0.86 0.88 0.88 0.89 0.88 0.93 1.04 1.10 1.11 1.08 1.11 1.20 1.24 1.23 1.28 1.28
0.27 0.30 0.33 0.37 0.36 0.39 0.44 0.52 0.58 0.64 0.61 0.54 0.54 0.60 0.62 0.64 0.66 0.70 0.76 0.80 0.76 0.74 0.76 0.82 0.78 0.74 0.71 0.72 0.72 0.71 0.74 0.77 0.81 0.87 0.95 1.01 1.06 1.10 1.16 1.21 1.24 1.23 1.25
0.26 0.30 0.38 0.42 0.40 0.40 0.48 0.59 0.65 0.67 0.66 0.58 0.49 0.48 0.51 0.51 0.56 0.62 0.66 0.67 0.66 0.58 0.59 0.65 0.68 0.68 0.65 0.61 0.59 0.59 0.60 0.62 0.65 0.73 0.81 0.87 0.94 0.99 1.04 1.10 1.15 1.21 1.23
0.32 0.37 0.45 0.50 0.46 0.46 0.50 0.52 0.52 0.56 0.56 0.52 0.51 0.52 0.52 0.49 0.48 0.51 0.54 0.55 0.58 0.57 0.57 0.60 0.62 0.63 0.61 0.60 0.57 0.55 0.57 0.60 0.62 0.68 0.75 0.85 0.91 0.92 0.92 0.97 1.06 1.11 1.09
0.41 0.40 0.41 0.48 0.48 0.46 0.47 0.46 0.48 0.51 0.49 0.47 0.48 0.52 0.55 0.50 0.49 0.49 0.49 0.49 0.50 0.54 0.56 0.57 0.58 0.64 0.62 0.60 0.58 0.58 0.58 0.59 0.59 0.65 0.69 0.73 0.78 0.83 0.86 0.90 0.92 0.96 1.01
0.41 0.42 0.40 0.47 0.50 0.45 0.43 0.45 0.50 0.52 0.51 0.49 0.47 0.48 0.50 0.47 0.47 0.49 0.50 0.53 0.53 0.55 0.56 0.55 0.58 0.61 0.65 0.63 0.61 0.61 0.63 0.63 0.62 0.64 0.68 0.70 0.72 0.75 0.78 0.80 0.83 0.88 0.91
0.44 0.43 0.43 0.46 0.47 0.45 0.43 0.45 0.50 0.54 0.52 0.50 0.49 0.49 0.47 0.45 0.44 0.46 0.52 0.60 0.65 0.63 0.59 0.57 0.59 0.64 0.66 0.66 0.64 0.64 0.64 0.62 0.62 0.64 0.69 0.72 0.74 0.77 0.80 0.82 0.83 0.88 0.93
0.47 0.48 0.50 0.52 0.51 0.54 0.57 0.56 0.53 0.53 0.55 0.53 0.51 0.49 0.48 0.45 0.45 0.46 0.52 0.59 0.65 0.65 0.63 0.61 0.61 0.65 0.69 0.71 0.72 0.68 0.64 0.63 0.62 0.62 0.67 0.73 0.75 0.76 0.77 0.81 0.84 0.86 0.93
0.47 0.48 0.51 0.55 0.55 0.56 0.61 0.59 0.56 0.55 0.57 0.60 0.60 0.55 0.51 0.48 0.47 0.47 0.49 0.56 0.59 0.59 0.59 0.60 0.64 0.68 0.69 0.68 0.68 0.70 0.81 0.80 0.73 0.69 0.68 0.73 0.77 0.77 0.81 0.84 0.88 0.92 0.96
0.46 0.49 0.54 0.60 0.62 0.61 0.62 0.64 0.61 0.59 0.61 0.63 0.66 0.68 0.65 0.59 0.54 0.53 0.54 0.57 0.57 0.56 0.57 0.58 0.61 0.64 0.67 0.67 0.66 0.70 0.76 0.73 0.72 0.75 0.73 0.74 0.80 0.85 0.89 0.93 0.95 1.02 1.10

GEFSGL_prec_meanprecacc_300.txt.gz
Total_Precipitation_Accumulation
1.21 1.25 1.22 1.30 1.40 1.65 1.84 1.79 1.59 1.55 1.56 1.55 1.51 1.58 1.74 1.87 1.98 2.09 2.16 2.16 2.17 2.30 2.24 2.21 2.30 2.40 2.66 2.62 2.66 2.64 2.55 2.48 2.44 2.20 1.84 1.82 2.05 2.15 2.05 1.84 1.68 1.68 1.52
1.01 1.06 1.14 1.15 1.26 1.37 1.49 1.52 1.44 1.31 1.27 1.33 1.38 1.37 1.46 1.67 1.81 1.83 1.86 1.86 1.90 2.01 2.08 2.03 2.08 2.17 2.29 2.49 2.59 2.57 2.59 2.54 2.52 2.45 2.12 1.93 1.88 2.00 2.07 2.02 1.77 1.63 1.56
0.94 1.02 1.12 1.11 1.10 1.11 1.15 1.11 1.13 1.11 1.15 1.18 1.28 1.34 1.41 1.51 1.67 1.69 1.71 1.66 1.65 1.70 1.83 1.91 1.98 2.03 2.06 2.18 2.15 2.24 2.38 2.55 2.63 2.52 2.35 2.14 1.97 1.95 2.02 1.98 1.91 1.94 1.70
1.02 1.11 1.17 1.18 1.18 1.17 1.14 1.11 1.12 1.12 1.15 1.23 1.39 1.46 1.47 1.50 1.50 1.55 1.62 1.62 1.50 1.43 1.49 1.55 1.69 1.82 1.86 2.03 2.00 2.01 2.18 2.43 2.70 2.70 2.54 2.30 2.16 2.10 2.06 2.02 2.07 2.05 1.94
0.90 1.03 1.10 1.18 1.24 1.17 1.07 1.02 1.07 1.06 1.04 1.17 1.32 1.46 1.50 1.49 1.44 1.53 1.60 1.63 1.57 1.39 1.32 1.34 1.41 1.56 1.84 1.94 1.88 2.09 2.25 2.31 2.46 2.60 2.58 2.49 2.33 2.17 2.02 1.93 1.99 2.05 2.07
0.81 0.92 1.12 1.20 1.13 1.08 0.98 0.96 0.97 0.95 0.95 1.03 1.17 1.35 1.47 1.43 1.82 1.80 1.60 1.57 1.54 1.39 1.27 1.25 1.23 1.24 1.46 1.78 1.93 2.05 2.19 2.26 2.31 2.35 2.38 2.30 2.24 2.18 2.24 2.21 2.09 2.02 1.99
0.77 0.91 1.12 1.15 1.06 0.99 1.03 1.04 0.98 0.95 0.97 1.03 1.07 1.08 1.18 1.49 1.55 1.30 1.32 1.33 1.44 1.36 1.23 1.15 1.05 1.03 1.20 1.29 1.46 1.58 1.77 2.07 2.28 2.32 2.21 2.06 2.15 2.13 2.19 2.24 2.15 2.07 1.96
0.68 0.80 0.97 1.02 1.01 1.03 1.03 1.00 0.92 0.85 0.86 0.90 0.93 0.97 1.04 1.18 1.20 1.13 1.21 1.11 1.24 1.25 1.15 1.11 1.08 1.07 1.12 1.18 1.33 1.47 1.46 1.53 1.77 1.83 1.84 1.87 1.93 2.10 2.18 2.22 2.30 2.23 2.18
0.55 0.67 0.77 0.80 0.87 0.90 0.87 0.90 0.85 0.77 0.77 0.78 0.82 0.89 0.98 0.97 1.00 1.00 1.06 1.14 1.28 1.24 1.11 1.11 1.09 1.07 1.27 1.36 1.34 1.40 1.48 1.43 1.57 1.75 1.95 1.93 1.85 1.86 1.98 2.04 2.18 2.23 2.20
0.47 0.58 0.67 0.69 0.71 0.75 0.81 0.84 0.85 0.79 0.75 0.75 0.79 0.80 0.86 0.91 1.05 0.91 0.99 1.16 1.27 1.30 1.25 1.16 1.27 1.25 1.37 1.36 1.29 1.42 1.47 1.30 1.23 1.35 1.52 1.56 1.48 1.50 1.70 1.71 1.92 2.09 2.01
0.37 0.48 0.55 0.59 0.66 0.76 0.84 0.86 0.90 0.87 0.82 0.80 0.84 0.86 0.81 0.90 1.06 1.02 1.03 1.07 1.27 1.32 1.34 1.27 1.14 1.24 1.24 1.29 1.33 1.39 1.58 1.44 1.30 1.36 1.48 1.46 1.34 1.33 1.40 1.47 1.59 1.87 1.94
0.27 0.35 0.48 0.57 0.64 0.73 0.84 0.89 0.88 0.89 0.90 0.91 0.89 0.90 0.87 0.87 0.94 0.98 1.01 1.06 1.16 1.19 1.28 1.25 1.19 1.30 1.17 1.14 1.14 1.26 1.55 1.49 1.34 1.36 1.40 1.40 1.33 1.23 1.28 1.31 1.39 1.51 1.64
0.22 0.27 0.35 0.42 0.47 0.56 0.67 0.78 0.83 0.84 0.85 0.86 0.92 0.99 1.00 0.93 0.99 1.11 0.98 0.96 1.01 1.02 1.05 1.18 1.17 1.15 1.08 1.02 1.08 1.19 1.32 1.44 1.44 1.38 1.29 1.25 1.24 1.23 1.28 1.25 1.26 1.35 1.38
0.23 0.26 0.28 0.31 0.34 0.40 0.55 0.62 0.67 0.73 0.78 0.84 0.92 1.02 1.13 1.08 1.01 0.98 0.93 0.93 0.96 0.90 0.85 0.87 0.89 0.92 0.92 0.93 0.97 1.02 1.13 1.32 1.45 1.36 1.23 1.24 1.25 1.27 1.30 1.22 1.22 1.29 1.33
0.22 0.24 0.25 0.27 0.30 0.35 0.43 0.57 0.65 0.70 0.76 0.81 0.88 1.03 1.10 1.11 1.13 1.23 1.20 1.11 1.06 1.03 0.98 0.88 0.82 0.84 0.93 1.00 1.00 0.98 1.04 1.17 1.27 1.26 1.21 1.19 1.23 1.27 1.26 1.20 1.17 1.21 1.25
0.28 0.26 0.27 0.29 0.32 0.35 0.41 0.50 0.58 0.59 0.61 0.65 0.70 0.76 0.85 0.92 0.98 0.99 1.03 1.03 1.00 0.99 1.06 1.05 1.02 1.05 1.06 1.05 1.05 0.99 0.95 1.00 1.12 1.20 1.20 1.15 1.12 1.17 1.22 1.22 1.20 1.21 1.21
0.38 0.35 0.33 0.32 0.36 0.41 0.43 0.45 0.52 0.54 0.57 0.60 0.62 0.67 0.73 0.78 0.79 0.82 0.88 0.93 0.97 0.96 1.03 1.02 0.95 0.89 0.89 0.87 0.89 0.90 0.90 0.90 0.96 1.07 1.12 1.13 1.10 1.12 1.21 1.25 1.25 1.29 1.29
0.29 0.32 0.34 0.38 0.37 0.40 0.47 0.54 0.60 0.66 0.62 0.56 0.57 0.63 0.64 0.65 0.68 0.71 0.79 0.82 0.77 0.75 0.78 0.85 0.82 0.78 0.73 0.74 0.74 0.72 0.75 0.80 0.83 0.90 0.98 1.03 1.08 1.11 1.17 1.22 1.25 1.24 1.26
0.27 0.31 0.40 0.44 0.41 0.41 0.50 0.61 0.67 0.69 0.67 0.59 0.51 0.51 0.54 0.53 0.58 0.64 0.68 0.68 0.67 0.60 0.60 0.67 0.72 0.74 0.68 0.63 0.61 0.60 0.62 0.64 0.68 0.76 0.84 0.90 0.96 1.01 1.05 1.11 1.16 1.23 1.24
0.32 0.39 0.47 0.51 0.47 0.48 0.52 0.53 0.53 0.57 0.57 0.53 0.52 0.55 0.56 0.52 0.50 0.53 0.55 0.57 0.60 0.58 0.60 0.63 0.65 0.67 0.65 0.63 0.60 0.57 0.59 0.63 0.66 0.71 0.78 0.88 0.93 0.94 0.93 0.98 1.07 1.13 1.11
0.42 0.42 0.43 0.49 0.50 0.48 0.48 0.47 0.49 0.52 0.50 0.48 0.50 0.54 0.58 0.53 0.52 0.52 0.51 0.52 0.53 0.57 0.59 0.60 0.62 0.67 0.67 0.65 0.64 0.63 0.62 0.62 0.63 0.68 0.72 0.76 0.81 0.85 0.88 0.91 0.94 0.98 1.03
0.43 0.43 0.42 0.49 0.52 0.47 0.45 0.46 0.51 0.53 0.53 0.50 0.48 0.48 0.51 0.48 0.49 0.51 0.53 0.56 0.56 0.58 0.60 0.60 0.63 0.66 0.71 0.70 0.68 0.68 0.69 0.68 0.67 0.69 0.72 0.73 0.76 0.78 0.81 0.83 0.86 0.90 0.93
0.45 0.44 0.44 0.47 0.49 0.47 0.45 0.47 0.52 0.56 0.54 0.51 0.51 0.50 0.48 0.46 0.46 0.48 0.54 0.62 0.67 0.66 0.63 0.61 0.64 0.70 0.73 0.72 0.70 0.70 0.70 0.67 0.66 0.68 0.73 0.76 0.78 0.81 0.84 0.86 0.86 0.91 0.96
0.48 0.49 0.51 0.53 0.52 0.54 0.58 0.57 0.55 0.55 0.56 0.55 0.52 0.51 0.50 0.47 0.47 0.48 0.54 0.61 0.66 0.67 0.67 0.64 0.65 0.70 0.75 0.76 0.75 0.72 0.68 0.68 0.65 0.65 0.71 0.77 0.79 0.80 0.81 0.85 0.88 0.90 0.96
0.48 0.49 0.51 0.55 0.56 0.57 0.62 0.61 0.57 0.56 0.59 0.62 0.62 0.58 0.54 0.51 0.50 0.50 0.52 0.59 0.62 0.61 0.62 0.63 0.67 0.71 0.72 0.71 0.72 0.74 0.84 0.84 0.77 0.73 0.71 0.77 0.80 0.81 0.84 0.88 0.92 0.96 1.01
0.47 0.50 0.55 0.61 0.63 0.62 0.63 0.65 0.63 0.60 0.62 0.65 0.68 0.71 0.68 0.62 0.57 0.56 0.57 0.60 0.60 0.59 0.59 0.60 0.63 0.66 0.69 0.70 0.70 0.76 0.81 0.76 0.76 0.78 0.76 0.77 0.83 0.88 0.92 0.96 0.99 1.06 1.14

GEFSGL_prec_meanprecacc_306.txt.gz
Total_Precipitation_Accumulation
1.22 1.26 1.24 1.32 1.43 1.67 1.87 1.83 1.63 1.58 1.59 1.58 1.54 1.61 1.77 1.90 2.00 2.12 2.19 2.18 2.18 2.31 2.25 2.21 2.31 2.41 2.67 2.63 2.67 2.66 2.57 2.50 2.45 2.20 1.85 1.83 2.06 2.17 2.06 1.84 1.68 1.69 1.53
1.02 1.08 1.16 1.17 1.28 1.40 1.52 1.55 1.46 1.34 1.30 1.35 1.40 1.40 1.48 1.69 1.83 1.85 1.89 1.88 1.91 2.02 2.08 2.03 2.08 2.18 2.30 2.50 2.61 2.59 2.60 2.56 2.54 2.46 2.13 1.94 1.90 2.02 2.08 2.04 1.78 1.64 1.57
0.96 1.04 1.14 1.12 1.12 1.13 1.16 1.12 1.14 1.13 1.16 1.18 1.29 1.35 1.42 1.51 1.67 1.70 1.72 1.67 1.66 1.71 1.84 1.91 1.98 2.04 2.08 2.20 2.17 2.25 2.39 2.56 2.64 2.53 2.36 2.14 1.98 1.96 2.03 2.00 1.93 1.96 1.71
1.05 1.13 1.20 1.19 1.19 1.18 1.15 1.12 1.13 1.13 1.16 1.24 1.40 1.46 1.47 1.50 1.50 1.56 1.63 1.63 1.51 1.44 1.50 1.56 1.70 1.83 1.88 2.06 2.02 2.03 2.19 2.44 2.71 2.71 2.55 2.31 2.17 2.11 2.07 2.04 2.09 2.07 1.97
0.92 1.06 1.12 1.19 1.25 1.18 1.08 1.02 1.08 1.06 1.05 1.18 1.33 1.46 1.50 1.49 1.45 1.54 1.61 1.64 1.59 1.41 1.32 1.35 1.41 1.57 1.85 1.96 1.91 2.12 2.27 2.32 2.47 2.61 2.59 2.50 2.35 2.20 2.06 1.96 2.02 2.08 2.10
0.84 0.94 1.14 1.22 1.15 1.09 0.99 0.97 0.98 0.96 0.95 1.04 1.17 1.36 1.47 1.44 1.83 1.81 1.62 1.59 1.55 1.40 1.28 1.26 1.24 1.25 1.48 1.80 1.95 2.08 2.21 2.28 2.32 2.36 2.39 2.31 2.24 2.19 2.27 2.24 2.13 2.05 2.01
0.79 0.93 1.13 1.16 1.07 1.00 1.04 1.05 0.99 0.96 0.98 1.04 1.08 1.09 1.19 1.50 1.56 1.31 1.33 1.34 1.45 1.37 1.24 1.16 1.06 1.04 1.21 1.30 1.47 1.59 1.78 2.09 2.29 2.33 2.21 2.07 2.15 2.13 2.20 2.25 2.17 2.09 1.97
0.69 0.81 0.98 1.03 1.01 1.04 1.03 1.01 0.93 0.87 0.87 0.91 0.93 0.97 1.05 1.19 1.22 1.14 1.22 1.12 1.26 1.26 1.16 1.12 1.10 1.07 1.12 1.19 1.35 1.49 1.47 1.54 1.78 1.84 1.84 1.88 1.94 2.11 2.19 2.23 2.31 2.24 2.19
0.56 0.68 0.78 0.81 0.87 0.90 0.88 0.90 0.86 0.77 0.77 0.79 0.83 0.90 0.98 0.98 1.02 1.02 1.08 1.16 1.29 1.24 1.11 1.11 1.10 1.07 1.27 1.37 1.35 1.42 1.49 1.44 1.57 1.75 1.96 1.94 1.86 1.87 1.98 2.05 2.19 2.24 2.21
0.48 0.60 0.68 0.69 0.72 0.75 0.81 0.84 0.85 0.79 0.76 0.76 0.80 0.81 0.86 0.91 1.06 0.93 1.02 1.18 1.28 1.30 1.26 1.16 1.27 1.26 1.38 1.37 1.30 1.44 1.49 1.30 1.24 1.35 1.52 1.57 1.49 1.51 1.71 1.71 1.92 2.10 2.02
0.38 0.49 0.56 0.59 0.66 0.76 0.84 0.86 0.90 0.87 0.82 0.81 0.85 0.86 0.82 0.91 1.07 1.04 1.06 1.09 1.28 1.33 1.35 1.27 1.14 1.25 1.25 1.30 1.35 1.40 1.59 1.45 1.30 1.37 1.48 1.47 1.35 1.34 1.41 1.47 1.60 1.88 1.95
0.29 0.36 0.49 0.57 0.65 0.73 0.85 0.89 0.88 0.89 0.90 0.92 0.90 0.92 0.88 0.88 0.95 1.00 1.03 1.07 1.17 1.19 1.28 1.26 1.20 1.31 1.18 1.15 1.15 1.27 1.57 1.51 1.35 1.37 1.41 1.42 1.34 1.25 1.30 1.32 1.40 1.51 1.65
0.23 0.28 0.36 0.42 0.47 0.57 0.67 0.78 0.84 0.84 0.85 0.86 0.92 1.00 1.02 0.94 1.00 1.12 0.99 0.97 1.03 1.03 1.06 1.19 1.17 1.16 1.09 1.03 1.08 1.20 1.33 1.45 1.46 1.39 1.30 1.27 1.26 1.24 1.29 1.26 1.27 1.36 1.38
0.24 0.27 0.29 0.32 0.34 0.40 0.55 0.62 0.68 0.73 0.78 0.85 0.92 1.04 1.14 1.10 1.02 0.99 0.94 0.94 0.96 0.90 0.85 0.88 0.90 0.93 0.93 0.93 0.98 1.03 1.14 1.33 1.46 1.37 1.24 1.25 1.27 1.29 1.31 1.23 1.24 1.31 1.34
0.24 0.26 0.27 0.29 0.32 0.36 0.44 0.57 0.65 0.70 0.76 0.82 0.89 1.03 1.12 1.12 1.14 1.24 1.20 1.12 1.07 1.04 0.99 0.88 0.82 0.85 0.94 1.00 1.01 0.99 1.05 1.17 1.28 1.26 1.22 1.20 1.24 1.29 1.29 1.22 1.19 1.23 1.27
0.29 0.27 0.28 0.30 0.34 0.37 0.42 0.51 0.58 0.60 0.62 0.66 0.71 0.77 0.86 0.93 0.99 1.00 1.03 1.03 1.00 0.99 1.06 1.05 1.02 1.05 1.07 1.05 1.06 1.00 0.96 1.00 1.13 1.20 1.21 1.16 1.14 1.19 1.25 1.24 1.23 1.24 1.23
0.39 0.36 0.34 0.34 0.38 0.43 0.44 0.46 0.53 0.55 0.58 0.61 0.63 0.68 0.73 0.79 0.80 0.82 0.88 0.94 0.97 0.96 1.03 1.02 0.95 0.90 0.89 0.88 0.90 0.90 0.91 0.90 0.96 1.08 1.13 1.14 1.11 1.15 1.24 1.28 1.28 1.32 1.31
0.31 0.33 0.36 0.39 0.38 0.42 0.48 0.55 0.61 0.67 0.63 0.57 0.57 0.63 0.65 0.66 0.68 0.72 0.80 0.82 0.78 0.76 0.78 0.85 0.83 0.79 0.74 0.75 0.75 0.73 0.76 0.80 0.84 0.90 0.99 1.04 1.09 1.14 1.20 1.25 1.28 1.27 1.30
0.28 0.33 0.41 0.45 0.43 0.43 0.52 0.63 0.68 0.71 0.68 0.60 0.52 0.51 0.55 0.54 0.58 0.64 0.69 0.70 0.69 0.62 0.62 0.69 0.74 0.75 0.69 0.64 0.63 0.62 0.63 0.66 0.69 0.77 0.85 0.91 0.97 1.03 1.08 1.14 1.19 1.26 1.28
0.33 0.40 0.48 0.53 0.48 0.49 0.54 0.55 0.55 0.59 0.59 0.55 0.53 0.56 0.57 0.53 0.52 0.54 0.57 0.59 0.63 0.61 0.62 0.66 0.69 0.71 0.69 0.66 0.64 0.61 0.62 0.65 0.67 0.72 0.80 0.90 0.95 0.96 0.95 1.00 1.10 1.15 1.13
0.42 0.42 0.44 0.50 0.51 0.49 0.50 0.49 0.51 0.54 0.52 0.51 0.52 0.57 0.60 0.55 0.54 0.54 0.54 0.54 0.55 0.60 0.62 0.65 0.67 0.72 0.72 0.69 0.68 0.68 0.66 0.66 0.65 0.70 0.74 0.78 0.83 0.87 0.90 0.93 0.95 1.00 1.05
0.43 0.44 0.43 0.49 0.53 0.48 0.46 0.48 0.52 0.54 0.54 0.52 0.51 0.52 0.55 0.50 0.51 0.53 0.54 0.58 0.58 0.61 0.63 0.64 0.66 0.70 0.76 0.75 0.73 0.74 0.75 0.72 0.70 0.72 0.76 0.76 0.79 0.81 0.84 0.85 0.88 0.92 0.96
0.46 0.45 0.45 0.48 0.50 0.48 0.46 0.48 0.54 0.57 0.56 0.53 0.52 0.52 0.51 0.49 0.48 0.50 0.56 0.64 0.69 0.68 0.65 0.64 0.67 0.73 0.76 0.77 0.74 0.74 0.74 0.71 0.69 0.70 0.77 0.80 0.81 0.84 0.87 0.88 0.88 0.93 0.98
0.48 0.49 0.52 0.54 0.53 0.55 0.59 0.58 0.56 0.57 0.58 0.57 0.54 0.53 0.52 0.49 0.50 0.51 0.57 0.64 0.69 0.69 0.69 0.66 0.67 0.72 0.77 0.78 0.78 0.75 0.71 0.71 0.68 0.69 0.75 0.82 0.84 0.83 0.84 0.87 0.91 0.93 0.98
0.48 0.50 0.52 0.56 0.57 0.58 0.63 0.62 0.59 0.58 0.60 0.63 0.65 0.61 0.57 0.54 0.53 0.53 0.55 0.62 0.64 0.64 0.64 0.64 0.69 0.72 0.74 0.73 0.74 0.76 0.87 0.87 0.80 0.77 0.75 0.81 0.86 0.85 0.88 0.91 0.95 0.99 1.04
0.48 0.50 0.55 0.62 0.64 0.63 0.65 0.67 0.65 0.62 0.64 0.67 0.70 0.73 0.71 0.65 0.61 0.60 0.60 0.63 0.63 0.61 0.61 0.61 0.64 0.67 0.70 0.72 0.72 0.79 0.84 0.79 0.79 0.83 0.80 0.82 0.88 0.93 0.97 1.00 1.02 1.09 1.18